Regional Weather Roundup
Issued by NWS

Home | Current Version | Previous Version | Graphics & Text | Print | Product List | Glossary On
Versions: 1 2 3 4 5 6 7 8 9 10 11 12 13 14 15 16 17 18 19 20 21 22 23 24 25 26 27 28 29 30 31 32 33 34 35 36 37 38 39 40 41 42 43 44 45 46 47 48 49 50
100
ASUS43 KDTX 211210
RWRMI
MICHIGAN HOURLY REGIONAL WEATHER ROUNDUP
NATIONAL WEATHER SERVICE DETROIT/PONTIAC MI
700 AM EST TUE FEB 21 2017

NOTE: "FAIR" INDICATES FEW OR NO CLOUDS BELOW 12,000 FEET WITH NO
SIGNIFICANT WEATHER AND/OR OBSTRUCTION TO VISIBILITY.

MIZ047>049-052>055-059>063-066>070-074>076-081>083-211300-
SOUTHEAST LOWER MICHIGAN

CITY           SKY/WX    TMP DP  RH WIND       PRES   REMARKS
ADRIAN         CLOUDY    36  34  92 CALM      29.97F
6HR MIN TEMP:  35; 6HR MAX TEMP:  37;

ALMA           CLOUDY    44  37  74 S6        29.92S
ANN ARBOR      CLOUDY    37  33  85 CALM      29.98F
BAD AXE        CLOUDY    40  32  72 S13       29.93F WCI  32
6HR MIN TEMP:  37; 6HR MAX TEMP:  40;

CARO           MOCLDY    47  35  63 S9G16     29.92S
DETROIT CITY   CLOUDY    38  33  82 SE3       29.99F
6HR MIN TEMP:  35; 6HR MAX TEMP:  38;

DETROIT        CLOUDY    39  33  79 CALM      29.99F
6HR MIN TEMP:  37; 6HR MAX TEMP:  39;

FLINT          CLOUDY    47  36  65 S9        29.94F
6HR MIN TEMP:  37; 6HR MAX TEMP:  47;

GROSSE ILE     CLOUDY    38  33  82 CALM      29.98S
6HR MIN TEMP:  36; 6HR MAX TEMP:  39;

HILLSDALE      CLOUDY    43  36  75 S7        29.95F
HOWELL         CLOUDY    43  35  72 S8        29.94F
6HR MIN TEMP:  39; 6HR MAX TEMP:  44;


CITY           SKY/WX    TMP DP  RH WIND       PRES   REMARKS
JACKSON        CLOUDY    44  36  73 S6        29.95F
6HR MIN TEMP:  39; 6HR MAX TEMP:  44;

LAMBERTVILLE   CLOUDY    38  35  89 CALM      29.98S
6HR MIN TEMP:  37; 6HR MAX TEMP:  38;

LANSING        CLOUDY    47  36  65 S8        29.94S
6HR MIN TEMP:  42; 6HR MAX TEMP:  47;

LAPEER         FAIR      45  35  66 S8        29.95F
6HR MIN TEMP:  37; 6HR MAX TEMP:  45;

MASON          CLOUDY    44  38  79 S5        29.94S
MONROE         CLOUDY    37  35  90 CALM      29.99S
6HR MIN TEMP:  36; 6HR MAX TEMP:  37;

MT. CLEMENS    CLOUDY    36  34  93 SE6       29.97F WCI  31
6HR MIN TEMP:  33; 6HR MAX TEMP:  37;

PONTIAC        CLOUDY    38  31  76 SE6       29.96F WCI  33
6HR MIN TEMP:  36; 6HR MAX TEMP:  38;

PORT HOPE        N/A     40  30  67 S14G24    29.90F WCI  32
6HR MIN TEMP:  36; 6HR MAX TEMP:  40;

PORT HURON     CLOUDY    37  30  75 S5        30.00F WCI  34
TRI CITIES     PTCLDY    43  35  73 S9        29.93S
6HR MIN TEMP:  39; 6HR MAX TEMP:  43;

MIDLAND        MOCLDY    42  32  68 CALM      29.92R
6HR MIN TEMP:  40; 6HR MAX TEMP:  42;

TROY           PTCLDY    38  30  72 CALM      30.00F
SAGINAW HB     CLOUDY    45  34  65 S10       29.93R
$$
MIZ043>046-050>051-056>058-064>065-071>073-077>080-211300-
SOUTHWEST LOWER MICHIGAN

CITY           SKY/WX    TMP DP  RH WIND       PRES   REMARKS
BATTLE CREEK   CLOUDY    49  41  74 SW8       29.95R
6HR MIN TEMP:  46; 6HR MAX TEMP:  50;

BENTON HARBOR  CLOUDY    55  48  77 S5        29.92F
6HR MIN TEMP:  52; 6HR MAX TEMP:  57; 6HR PCP: TRACE;

BIG RAPIDS     LGT SNOW  43  40  90 SE3       29.89S
6HR MIN TEMP:  43; 6HR MAX TEMP:  46; 6HR PCP:  0.09;

COLDWATER      CLOUDY    51  40  66 S5        29.95S
6HR MIN TEMP:  43; 6HR MAX TEMP:  51;

FREMONT        LGT RAIN  49  48  99 S5        29.88S
HOLLAND        LGT RAIN  56  47  71 SW14      29.91S
6HR MIN TEMP:  51; 6HR MAX TEMP:  58; 6HR PCP: TRACE;

GRAND RAPIDS   CLOUDY    50  40  68 S9        29.92S
6HR MIN TEMP:  47; 6HR MAX TEMP:  51;

IONIA          CLOUDY    46  38  73 S3        29.92S
6HR MIN TEMP:  41; 6HR MAX TEMP:  46;

KALAMAZOO      CLOUDY    50  39  66 S7        29.95R
6HR MIN TEMP:  46; 6HR MAX TEMP:  50;

LUDINGTON      CLOUDY    49  48  96 SW8       29.85F FOG
6HR MIN TEMP:  49; 6HR MAX TEMP:  57; 6HR PCP:  0.07;

MARSHALL       CLOUDY    49  39  70 S5        29.94S
6HR MIN TEMP:  42; 6HR MAX TEMP:  49;

MOUNT PLEASANT LGT RAIN  42  34  74 CALM      29.92R
6HR MIN TEMP:  38; 6HR MAX TEMP:  42;

MUSKEGON       LGT RAIN  51  48  89 S15G22    29.90R FOG
6HR MIN TEMP:  50; 6HR MAX TEMP:  58; 6HR PCP:  0.09;

SOUTH HAVEN    CLOUDY    56  46  70 SW6       29.92F
$$
MIZ016>042-211300-
NORTHERN LOWER MICHIGAN

CITY           SKY/WX    TMP DP  RH WIND       PRES   REMARKS
ALPENA         CLOUDY    43  33  68 SW14G20   29.87S
6HR MIN TEMP:  38; 6HR MAX TEMP:  43;

BEAVER ISLAND  CLOUDY    46  44  95 S15G21    29.77R
6HR MIN TEMP:  39; 6HR MAX TEMP:  46;

BELLAIRE       CLOUDY    45  43  91 S7        29.82F
6HR MIN TEMP:  44; 6HR MAX TEMP:  48;

CADILLAC       LGT RAIN  43  41  94 SW7       29.85F
CHARLEVOIX     CLOUDY    46  43  88 S14G25    29.80F
FRANKFORT      CLOUDY    50  48  94 S7        29.82S
GAYLORD        LGT RAIN  41  36  82 S12       29.82F
6HR MIN TEMP:  41; 6HR MAX TEMP:  44; 6HR PCP:  0.10;

GRAYLING       MIX PCPN  40  38  91 S9        29.87F WCI  34
6HR MIN TEMP:  40; 6HR MAX TEMP:  43;

HARBOR SPRINGS CLOUDY    45  44  95 S3        29.77F
HOUGHTON LAKE  LGT RAIN  39  35  86 S5        29.89F FOG
6HR MIN TEMP:  38; 6HR MAX TEMP:  41; 6HR PCP:  0.05;

MANISTEE       CLOUDY    49  48  97 VRB6      29.84S FOG
OSCODA         CLOUDY    40  30  67 SW8       29.90F WCI  35
6HR MIN TEMP:  37; 6HR MAX TEMP:  40;

PELLSTON       LGT RAIN  46  42  86 S13       29.77F
6HR MIN TEMP:  38; 6HR MAX TEMP:  47; 6HR PCP:  0.09;

ROGERS CITY    MIX PCPN  41  35  79 S14G20    29.85R
TRAVERSE CITY  CLOUDY    48  44  86 S8        29.80F
6HR MIN TEMP:  47; 6HR MAX TEMP:  52; 6HR PCP:  0.08;

$$
MIZ007>008-015-211300-
EASTERN UPPER MICHIGAN

CITY           SKY/WX    TMP DP  RH WIND       PRES   REMARKS
KINROSS        LGT RAIN  35  33  92 SE13      29.75F WCI  26
6HR MIN TEMP:  34; 6HR MAX TEMP:  36; 6HR PCP:  0.17;

MACKINAC ISLAN DRIZZLE   42  42 100 S13G21    29.75F
6HR MIN TEMP:  35; 6HR MAX TEMP:  42; 6HR PCP:  0.17;

NEWBERRY       CLOUDY    38  37  97 S14G20    29.73R WCI  30
6HR MIN TEMP:  34; 6HR MAX TEMP:  38; 6HR PCP:  0.11;

S. S. MARIE    LGT RAIN  35  33  92 SE7G20    29.77F WCI  29
6HR MIN TEMP:  33; 6HR MAX TEMP:  36; 6HR PCP:  0.23;

MUNISING         N/A     45  44  97 S8        29.70R
6HR MIN TEMP:  39; 6HR MAX TEMP:  46; 6HR PCP:  0.05;

$$
MIZ004>006-011>014-085-211300-
CENTRAL UPPER MICHIGAN

CITY           SKY/WX    TMP DP  RH WIND       PRES   REMARKS
MANISTIQUE     CLOUDY    37  37  97 SW13G18   29.74S FOG     WCI  29
6HR MIN TEMP:  36; 6HR MAX TEMP:  39; 6HR PCP:  0.08;

ESCANABA       FOG       41  41 100 S5        29.75R VSB 1/4
6HR MIN TEMP:  40; 6HR MAX TEMP:  43; 6HR PCP:  0.01;

MENOMINEE      CLEAR     50  48  93 W6        29.79R
6HR MIN TEMP:  46; 6HR MAX TEMP:  51; 6HR PCP: TRACE;

$$
MIZ001>003-009>011-084-211300-
WESTERN UPPER MICHIGAN

CITY           SKY/WX    TMP DP  RH WIND       PRES   REMARKS
IRON MOUNTAIN  CLEAR     46  41  82 W12       29.74R
6HR MIN TEMP:  43; 6HR MAX TEMP:  50; 6HR PCP: TRACE;

HOUGHTON       CLOUDY    38  33  82 W32G44    29.69R WCI  25
6HR MIN TEMP:  38; 6HR MAX TEMP:  46; 6HR PCP:  0.06;

COPPER HARBOR    N/A     41  37  86 NW14G31   29.65R
6HR MIN TEMP:  41; 6HR MAX TEMP:  46; 6HR PCP:  0.06;

IRONWOOD       CLEAR     37  34  89 SW15      29.80R WCI  28
6HR MIN TEMP:  37; 6HR MAX TEMP:  50; 6HR PCP:  0.03;

$$

ABBREVIATIONS USED IN REMARKS
   TC - TEMPERATURE IN CELSIUS
  WCI - WIND CHILL INDEX
   HX - HEAT INDEX
  VSB - VISIBILITY





USA.gov is the U.S. government's official web portal to all federal, state and local government web resources and services.